This is the latest recevied weather packets stored in our database for station/object OK2ILA-6. If no packets are shown the sender has not sent any weather packets the latest 10 day(s).
| Time | Temp. | Humidity | Pressure | Rain* | Wind** | Luminosity | Snow |
|---|---|---|---|---|---|---|---|
| 1787573403 | 23.33° C | 44% | 1021.4 hPa | - | - | - | - |
| 1787572803 | 23.33° C | 42% | 1021.3 hPa | - | - | - | - |
| 1787572202 | 23.89° C | 43% | 1021.4 hPa | - | - | - | - |
| 1787571603 | 24.44° C | 42% | 1021.4 hPa | - | - | - | - |
| 1787571003 | 23.33° C | 42% | 1021.4 hPa | - | - | - | - |
| 1787570403 | 23.33° C | 42% | 1021.4 hPa | - | - | - | - |
| 1787569803 | 22.78° C | 46% | 1021.5 hPa | - | - | - | - |
| 1787569202 | 22.22° C | 46% | 1021.4 hPa | - | - | - | - |
| 1787568603 | 23.33° C | 42% | 1021.6 hPa | - | - | - | - |
| 1787568003 | 22.78° C | 43% | 1021.6 hPa | - | - | - | - |
| 1787567403 | 23.33° C | 42% | 1021.6 hPa | - | - | - | - |
| 1787566803 | 23.33° C | 45% | 1021.8 hPa | - | - | - | - |
| 1787566202 | 23.33° C | 42% | 1021.8 hPa | - | - | - | - |
| 1787565603 | 22.78° C | 44% | 1021.7 hPa | - | - | - | - |
| 1787565003 | 23.33° C | 43% | 1021.8 hPa | - | - | - | - |
| 1787564403 | 23.33° C | 42% | 1022 hPa | - | - | - | - |
| 1787563803 | 23.33° C | 45% | 1022 hPa | - | - | - | - |
| 1787563202 | 22.78° C | 44% | 1022 hPa | - | - | - | - |
| 1787562603 | 22.22° C | 46% | 1022.2 hPa | - | - | - | - |
| 1787562003 | 22.22° C | 46% | 1022.2 hPa | - | - | - | - |
| 1787561403 | 22.22° C | 45% | 1022.4 hPa | - | - | - | - |
| 1787560803 | 21.67° C | 46% | 1022.2 hPa | - | - | - | - |
| 1787560202 | 21.11° C | 47% | 1022.2 hPa | - | - | - | - |
| 1787559603 | 21.11° C | 48% | 1022.4 hPa | - | - | - | - |
| 1787559003 | 20.56° C | 47% | 1022.5 hPa | - | - | - | - |
* Rain since midnight (hover to see other rain measurements)
** Current wind speed in m/s (hover to see current wind gust speed)